FW9127 Weather Reports


Display with metric or nautical units.
time (UTC)temp
F
wind
direction
speed
MPH
gust
MPH
rain 1hr
in
rain 24hr
in
rain mn
in
humidity
%
barometer
mb
20260508005918 53 203 14.0 24.0 0.01 0.01 0.04 92 998.8
20260508005410 53 225 13.0 21.0 0.01 0.01 0.04 92 998.9
20260508004858 53 270 11.0 21.0 0.01 0.01 0.04 92 998.7
20260508004348 54 248 11.0 18.0 0.01 0.01 0.04 92 998.7
20260508003839 54 270 8.0 21.0 0.01 0.01 0.04 92 998.5
20260508003327 54 248 12.0 21.0 0.01 0.01 0.04 92 998.6
20260508002818 54 225 13.0 20.0 0.01 0.01 0.04 91 998.5
20260508002310 54 248 8.0 20.0 0.01 0.01 0.04 91 998.6
20260508001248 55 293 8.0 15.0 0.00 0.00 0.02 91 998.8
20260508000738 55 225 8.0 13.0 0.00 0.00 0.02 90 998.9
20260507235718 54 293 5.0 9.0 0.00 0.00 0.02 90 998.8
20260507235207 54 225 4.0 9.0 0.00 0.00 0.02 90 999.0
20260507234657 54 248 4.0 9.0 0.00 0.00 0.02 90 999.0
20260507234146 54 248 4.0 9.0 0.00 0.00 0.02 90 999.1
20260507233636 54 293 4.0 13.0 0.00 0.00 0.02 90 999.1
20260507233126 54 248 4.0 13.0 0.00 0.00 0.02 90 999.2
20260507232617 53 248 4.0 11.0 0.00 0.00 0.02 90 999.3
20260507232107 54 293 4.0 11.0 0.00 0.00 0.02 90 999.2
20260507231047 54 293 4.0 9.0 0.00 0.00 0.02 90 999.7
20260507230536 54 293 3.0 9.0 0.00 0.00 0.02 90 999.9
20260507230027 54 248 4.0 9.0 0.00 0.00 0.02 90 999.8
20260507225005 54 270 4.0 9.0 0.00 0.00 0.02 90 999.6
20260507224456 54 270 4.0 11.0 0.00 0.00 0.02 90 999.6
20260507223945 55 270 7.0 11.0 0.00 0.00 0.02 89 999.4
20260507223435 55 270 4.0 8.0 0.00 0.00 0.02 88 999.2
20260507222925 56 248 3.0 7.0 0.00 0.00 0.02 88 999.2
20260507222416 56 293 3.0 7.0 0.00 0.00 0.02 88 999.1
20260507221904 56 270 4.0 7.0 0.00 0.00 0.02 88 999.1
20260507221354 56 270 3.0 7.0 0.00 0.00 0.02 88 998.8
20260507215825 56 270 4.0 8.0 0.00 0.00 0.02 87 998.8
20260507215327 56 293 4.0 8.0 0.00 0.00 0.02 87 998.7
20260507214805 56 248 2.0 8.0 0.00 0.00 0.02 86 998.8
20260507214255 56 248 4.0 8.0 0.00 0.00 0.02 86 999.1
20260507213743 56 293 4.0 8.0 0.00 0.00 0.02 85 999.0
20260507213234 56 225 3.0 8.0 0.00 0.00 0.02 85 998.7
20260507212724 56 293 4.0 7.0 0.00 0.00 0.02 85 998.7
20260507212215 56 293 4.0 11.0 0.00 0.00 0.02 84 998.2
20260507211704 56 270 3.0 11.0 0.00 0.00 0.02 84 998.2
20260507210642 56 270 4.0 9.0 0.00 0.00 0.02 83 998.3
20260507210133 56 270 4.0 9.0 0.00 0.00 0.02 83 998.4
20260507205623 57 293 3.0 9.0 0.00 0.00 0.02 83 998.5
20260507205112 56 225 5.0 9.0 0.00 0.00 0.02 83 998.6
20260507204055 57 293 4.0 8.0 0.00 0.00 0.02 82 998.7
20260507203542 57 270 2.0 11.0 0.00 0.00 0.02 82 998.3
20260507203034 57 270 2.0 11.0 0.00 0.00 0.02 82 997.8
20260507202523 57 203 4.0 9.0 0.00 0.00 0.02 82 997.4
20260507202012 57 270 3.0 11.0 0.00 0.00 0.02 82 997.3
20260507201503 57 248 5.0 11.0 0.00 0.00 0.02 82 997.0
20260507200952 57 248 4.0 17.0 0.00 0.00 0.02 81 996.9
20260507200454 57 225 5.0 20.0 0.00 0.00 0.02 81 996.7
20260507195932 57 293 6.0 20.0 0.00 0.00 0.02 81 996.6
20260507195428 57 225 11.0 23.0 0.00 0.00 0.02 81 996.4
20260507194912 57 270 6.0 23.0 0.00 0.00 0.02 81 997.1
20260507194401 57 270 8.0 15.0 0.00 0.00 0.02 80 997.4
20260507193852 58 225 5.0 16.0 0.00 0.00 0.02 81 997.5
20260507192321 58 270 4.0 13.0 0.00 0.00 0.02 81 998.7
20260507191811 58 248 4.0 11.0 0.00 0.00 0.02 81 998.8
20260507191302 58 248 4.0 11.0 0.00 0.00 0.02 80 998.9
20260507190751 58 293 8.0 11.0 0.00 0.00 0.02 80 999.4
20260507190240 59 248 6.0 11.0 0.00 0.00 0.02 80 999.4
20260507185221 59 293 8.0 16.0 0.00 0.00 0.02 79 999.7
20260507184711 59 293 4.0 11.0 0.00 0.00 0.02 80 999.5
20260507184200 59 293 6.0 14.0 0.00 0.00 0.02 79 999.8
20260507183650 60 293 7.0 14.0 0.00 0.00 0.02 79 999.7
20260507183139 60 270 5.0 11.0 0.00 0.00 0.02 79 999.6
20260507182632 60 293 7.0 11.0 0.00 0.00 0.02 79 999.4
20260507182116 60 225 7.0 11.0 0.00 0.00 0.02 79 999.8
20260507181606 60 270 7.0 14.0 0.00 0.00 0.02 79 999.4
20260507181057 60 248 5.0 14.0 0.00 0.00 0.02 79 999.6
20260507180549 60 270 4.0 16.0 0.00 0.00 0.02 80 999.0
20260507180040 60 248 4.0 16.0 0.00 0.00 0.02 80 999.0
20260507175530 60 270 6.0 13.0 0.00 0.00 0.02 80 999.2
20260507175019 60 248 5.0 9.0 0.00 0.00 0.02 80 999.3
20260507174515 60 293 4.0 9.0 0.00 0.00 0.02 81 999.1
20260507174000 59 270 6.0 15.0 0.00 0.00 0.02 82 999.0
20260507173449 59 293 8.0 15.0 0.00 0.00 0.02 82 998.9
20260507172938 59 293 8.0 15.0 0.00 0.00 0.02 81 999.2
20260507172431 59 225 6.0 16.0 0.00 0.00 0.02 82 998.9
20260507171918 59 293 6.0 16.0 0.00 0.00 0.02 82 999.2
20260507171409 60 248 4.0 17.0 0.00 0.00 0.02 83 999.2
20260507170900 59 270 8.0 17.0 0.00 0.00 0.02 83 999.4
20260507170348 59 248 5.0 13.0 0.00 0.00 0.02 83 999.3
20260507165840 59 270 5.0 13.0 0.00 0.00 0.02 84 999.6
20260507165328 59 293 4.0 11.0 0.00 0.00 0.02 84 999.3
20260507164307 58 293 5.0 13.0 0.00 0.00 0.02 84 999.5
20260507163248 58 203 8.0 18.0 0.00 0.00 0.02 85 999.2
20260507162228 58 203 5.0 11.0 0.00 0.00 0.02 85 999.4
20260507161717 58 293 5.0 11.0 0.00 0.00 0.02 85 999.2
20260507161208 58 293 4.0 8.0 0.00 0.00 0.02 85 999.3
20260507160658 59 270 3.0 11.0 0.00 0.00 0.02 85 999.1
20260507155126 60 270 7.0 13.0 0.00 0.00 0.02 85 998.6
20260507154617 59 248 7.0 13.0 0.00 0.00 0.02 85 998.8
20260507154115 59 270 4.0 11.0 0.00 0.00 0.02 87 999.2
20260507153558 59 248 4.0 11.0 0.00 0.00 0.02 87 999.4
20260507153056 58 270 3.0 11.0 0.00 0.00 0.02 87 999.9
20260507152026 58 270 3.0 11.0 0.00 0.00 0.02 86 1000.1
20260507151516 58 270 7.0 11.0 0.00 0.00 0.02 86 1000.1
20260507151006 58 270 4.0 11.0 0.00 0.00 0.02 87 999.9
20260507150456 58 225 4.0 11.0 0.00 0.00 0.02 87 1000.0
20260507145945 57 270 7.0 13.0 0.00 0.00 0.02 87 1000.2
20260507145436 58 270 5.0 14.0 0.00 0.00 0.02 88 999.7
20260507144926 58 225 8.0 14.0 0.00 0.00 0.02 88 1000.3
20260507144415 58 203 7.0 11.0 0.00 0.00 0.02 89 999.9
20260507143355 58 293 5.0 13.0 0.00 0.00 0.02 90 1000.0
20260507142845 59 225 4.0 11.0 0.00 0.00 0.02 90 999.9
20260507142334 59 248 4.0 11.0 0.00 0.00 0.02 90 999.8
20260507141824 59 225 6.0 11.0 0.00 0.00 0.02 90 999.8
20260507140804 59 270 3.0 11.0 0.00 0.00 0.02 90 1000.1
20260507140254 59 270 2.0 11.0 0.00 0.00 0.02 90 999.7
20260507135743 59 248 6.0 11.0 0.00 0.00 0.02 90 999.5
20260507135233 59 225 8.0 11.0 0.00 0.00 0.02 91 999.9
20260507134723 59 248 5.0 9.0 0.00 0.00 0.02 91 1000.2
20260507134219 58 248 2.0 9.0 0.00 0.00 0.02 91 1001.0
20260507133703 58 225 4.0 6.0 0.00 0.00 0.02 91 1000.8
20260507133153 58 225 3.0 11.0 0.00 0.00 0.02 91 1000.4
20260507132644 58 270 4.0 11.0 0.00 0.00 0.02 91 1000.0
20260507132133 58 225 8.0 11.0 0.00 0.00 0.02 91 999.7
20260507131626 58 248 8.0 9.0 0.00 0.00 0.02 91 999.8
20260507131112 58 180 4.0 9.0 0.00 0.00 0.02 91 999.2
20260507130601 58 248 5.0 0.0 0.00 0.00 0.02 91 999.7
20260507130107 58 225 7.0 11.0 0.00 0.00 0.02 91 999.6
20260507125545 58 248 5.0 14.0 0.00 0.00 0.02 91 999.5
20260507125035 58 270 5.0 14.0 0.00 0.00 0.02 92 999.5
20260507124524 57 203 11.0 14.0 0.00 0.00 0.02 92 999.0
20260507124014 57 225 10.0 15.0 0.00 0.00 0.02 92 999.0
20260507122955 57 248 10.0 16.0 0.00 0.00 0.02 92 998.6
20260507122445 57 248 7.0 15.0 0.00 0.00 0.02 92 999.1
20260507121933 56 270 8.0 20.0 0.00 0.00 0.02 93 999.6
20260507121430 56 248 7.0 20.0 0.00 0.00 0.02 93 999.8
20260507120926 56 248 5.0 14.0 0.00 0.00 0.02 93 999.7
20260507120405 56 248 5.0 15.0 0.00 0.00 0.02 93 999.7
20260507115854 56 225 11.0 18.0 0.00 0.00 0.02 93 998.8
20260507115343 56 248 8.0 18.0 0.00 0.00 0.02 93 998.7
20260507114833 56 248 10.0 16.0 0.00 0.00 0.02 93 998.5
20260507114323 56 270 7.0 15.0 0.00 0.00 0.02 94 998.6
20260507113816 56 248 9.0 15.0 0.00 0.00 0.02 94 998.5
20260507113304 56 225 8.0 15.0 0.00 0.00 0.02 94 998.6
20260507112753 56 293 3.0 18.0 0.00 0.00 0.02 94 999.3
20260507111733 55 248 8.0 15.0 0.00 0.00 0.02 94 997.8
20260507111222 56 248 7.0 11.0 0.00 0.00 0.02 94 998.1
20260507110712 56 248 8.0 13.0 0.00 0.00 0.02 94 997.8
20260507110202 56 248 9.0 13.0 0.00 0.00 0.02 94 997.5
20260507105654 56 270 8.0 11.0 0.00 0.00 0.02 94 998.2
20260507105142 56 270 5.0 11.0 0.00 0.00 0.02 94 998.4
20260507104634 56 248 4.0 11.0 0.00 0.00 0.02 94 998.4
20260507103103 56 248 4.0 7.0 0.00 0.00 0.02 94 998.3
20260507102557 56 225 4.0 7.0 0.00 0.00 0.02 94 998.4
20260507102042 56 225 2.0 9.0 0.00 0.00 0.02 94 998.6
20260507101531 56 270 2.0 9.0 0.00 0.00 0.02 94 998.9
20260507101022 56 248 4.0 8.0 0.00 0.00 0.02 94 998.4
20260507100511 56 248 4.0 8.0 0.00 0.00 0.02 94 998.5
20260507100001 56 248 3.0 8.0 0.00 0.00 0.02 94 998.6
20260507094940 56 270 3.0 13.0 0.00 0.00 0.02 94 998.4
20260507094428 56 248 5.0 13.0 0.00 0.00 0.02 94 997.7
20260507093920 56 248 6.0 11.0 0.00 0.00 0.02 94 997.6
20260507093411 56 248 8.0 11.0 0.00 0.00 0.02 94 997.8
20260507092900 56 270 8.0 11.0 0.00 0.00 0.02 94 997.9
20260507092349 56 248 4.0 11.0 0.00 0.00 0.02 94 998.1
20260507091840 57 270 5.0 11.0 0.00 0.00 0.02 94 998.3
20260507091330 57 248 4.0 8.0 0.00 0.00 0.02 94 998.1
20260507090820 57 225 3.0 9.0 0.00 0.00 0.02 94 998.1
20260507090309 57 203 4.0 11.0 0.00 0.00 0.02 94 997.7
20260507085800 57 248 5.0 11.0 0.00 0.00 0.02 94 998.0
20260507085250 57 270 4.0 8.0 0.00 0.00 0.02 94 998.0
20260507084739 58 248 2.0 11.0 0.00 0.00 0.02 94 998.0
20260507084229 58 270 4.0 11.0 0.00 0.00 0.02 94 998.1
20260507083719 58 270 4.0 11.0 0.00 0.00 0.02 94 998.9
20260507083209 58 248 4.0 11.0 0.00 0.00 0.02 94 999.4
20260507082659 58 248 3.0 7.0 0.00 0.00 0.02 94 999.5
20260507082149 58 293 4.0 7.0 0.00 0.00 0.02 94 999.5
20260507081128 58 270 2.0 6.0 0.00 0.00 0.02 94 999.0
20260507080630 58 270 2.0 4.0 0.00 0.00 0.02 94 998.9
20260507080111 58 203 2.0 4.0 0.00 0.00 0.02 94 999.1
20260507075558 58 270 0.0 4.0 0.00 0.00 0.02 94 999.1
20260507075049 58 270 2.0 7.0 0.00 0.00 0.02 94 999.0
20260507074537 58 270 2.0 11.0 0.00 0.00 0.02 94 999.0
20260507074029 58 248 4.0 16.0 0.00 0.00 0.02 94 999.0
20260507073007 59 225 5.0 14.0 0.00 0.00 0.02 94 998.3
20260507071948 60 270 5.0 15.0 0.00 0.00 0.02 94 997.0
20260507071440 60 203 2.0 17.0 0.00 0.00 0.02 94 994.3
20260507070927 60 90 11.0 17.0 0.00 0.00 0.02 94 993.3
20260507070414 60 225 4.0 0.0 0.00 0.00 0.02 94 998.5
20260507070159 60 203 6.0 0.0 0.00 0.00 0.02 94 999.1
20260507065501 60 270 4.0 6.0 0.01 0.89 0.02 94 1000.4
20260507064950 60 90 0.0 4.0 0.01 0.89 0.02 94 998.8
20260507064440 60 158 1.0 4.0 0.00 0.87 0.01 94 999.2
20260507063931 60 315 2.0 4.0 0.01 0.87 0.01 94 999.4
20260507063420 60 113 3.0 8.0 0.01 0.87 0.01 94 998.8
20260507062910 60 113 1.0 8.0 0.01 0.87 0.01 94 1000.7
20260507062400 60 315 2.0 8.0 0.01 0.87 0.01 93 1000.1
20260507061348 60 270 4.0 6.0 0.01 0.87 0.01 93 1000.0
20260507060830 60 293 2.0 6.0 0.01 0.87 0.01 93 1000.1
20260507055809 61 315 3.0 4.0 0.01 0.87 0.01 93 1000.5
20260507055301 61 68 2.0 4.0 0.01 0.87 0.01 93 1000.2
20260507054749 61 293 2.0 6.0 0.01 0.87 0.01 93 1000.3
20260507054239 61 68 2.0 6.0 0.00 0.86 0.00 93 1000.3
20260507053219 61 338 4.0 9.0 0.00 0.86 0.00 93 1000.2
20260507052159 61 270 3.0 4.0 0.00 0.86 0.00 93 1001.3
20260507051648 61 203 1.0 8.0 0.00 0.86 0.00 93 1000.3
20260507050629 60 0 4.0 6.0 0.00 0.86 0.00 93 999.7
20260507050118 61 68 4.0 4.0 0.00 0.86 0.00 93 998.5
20260507045608 61 315 0.0 0.0 0.00 0.86 0.00 93 998.7
20260507044548 60 180 0.0 4.0 0.00 0.86 0.00 93 998.4
20260507044038 61 203 2.0 4.0 0.00 0.86 0.00 93 998.3
20260507043528 61 203 1.0 2.0 0.00 0.86 0.00 93 998.1
20260507042508 61 315 0.0 2.0 0.00 0.86 0.00 93 998.2
20260507041958 61 23 1.0 4.0 0.00 0.86 0.00 92 997.6
20260507041447 61 45 2.0 4.0 0.00 0.86 0.00 92 997.3
20260507040938 60 45 1.0 4.0 0.00 0.86 0.00 92 997.2
20260507040440 60 90 1.0 4.0 0.00 0.86 0.00 92 997.5
20260507035917 60 90 0.0 0.0 0.00 0.86 0.00 92 997.9
20260507033837 61 45 0.0 2.0 0.05 0.86 0.00 92 998.4
20260507033327 61 68 0.0 2.0 0.06 0.86 0.00 92 998.3
20260507032816 61 45 2.0 2.0 0.06 0.86 0.00 92 998.2
20260507032308 61 90 1.0 2.0 0.07 0.86 0.00 91 998.4
20260507031756 61 23 1.0 2.0 0.07 0.86 0.00 91 998.7
20260507030736 61 68 2.0 7.0 0.08 0.86 0.00 91 998.2
20260507025715 62 180 4.0 11.0 0.09 0.86 0.87 91 998.5
20260507025205 62 225 7.0 11.0 0.08 0.83 0.85 91 998.6
20260507024655 63 225 8.0 11.0 0.09 0.83 0.84 91 999.1
20260507024145 63 248 5.0 7.0 0.11 0.83 0.84 92 998.9
20260507023635 63 203 4.0 7.0 0.11 0.81 0.83 92 998.6
20260507023125 64 225 3.0 6.0 0.37 0.80 0.81 92 998.4
20260507022615 64 225 0.0 11.0 0.59 0.79 0.80 92 999.0
20260507022106 64 248 3.0 11.0 0.66 0.79 0.80 92 998.6
20260507021554 64 248 8.0 11.0 0.74 0.79 0.80 92 997.9
20260507021046 64 270 4.0 11.0 0.73 0.78 0.79 92 998.9
20260507020535 65 293 4.0 11.0 0.73 0.78 0.79 92 999.3
20260507015514 66 293 4.0 17.0 0.72 0.77 0.78 92 999.2
20260507015004 66 270 3.0 22.0 0.70 0.74 0.76 92 998.8
20260507014454 66 315 12.0 22.0 0.69 0.73 0.74 91 998.8
20260507013944 67 315 5.0 20.0 0.67 0.72 0.73 91 997.6
20260507013433 67 270 3.0 15.0 0.59 0.64 0.71 90 998.4
20260507012924 67 293 4.0 14.0 0.30 0.34 0.35 89 998.6
20260507012414 69 293 4.0 17.0 0.13 0.18 0.19 87 997.5
20260507011405 75 225 8.0 15.0 0.00 0.05 0.06 84 997.9
20260507010333 75 23 9.0 21.0 0.00 0.05 0.06 84 995.6